owner,sensor,date,latitude,longitude,air_pressure(mBar),qcFlag 
COMPS,ioos:station:USF.COMPS:C13:1,2017-01-01T00:05:00Z,26.0630,-83.0730,1017.4,1111122 
COMPS,ioos:station:USF.COMPS:C13:1,2017-01-01T00:35:00Z,26.0630,-83.0730,1017.69,1111122 
COMPS,ioos:station:USF.COMPS:C13:1,2017-01-01T01:05:00Z,26.0630,-83.0730,1017.9,1111122 
COMPS,ioos:station:USF.COMPS:C13:1,2017-01-01T01:35:00Z,26.0630,-83.0730,1018.08,1111122 
COMPS,ioos:station:USF.COMPS:C13:1,2017-01-01T02:05:00Z,26.0630,-83.0730,1018.35,1111122 
COMPS,ioos:station:USF.COMPS:C13:1,2017-01-01T02:35:00Z,26.0630,-83.0730,1018.48,1111122 
COMPS,ioos:station:USF.COMPS:C13:1,2017-01-01T03:05:00Z,26.0630,-83.0730,1018.64,1111122 
COMPS,ioos:station:USF.COMPS:C13:1,2017-01-01T03:35:00Z,26.0630,-83.0730,1018.72,1111122 
COMPS,ioos:station:USF.COMPS:C13:1,2017-01-01T04:05:00Z,26.0630,-83.0730,1018.57,1111122 
COMPS,ioos:station:USF.COMPS:C13:1,2017-01-01T04:35:00Z,26.0630,-83.0730,1018.49,1111122 
COMPS,ioos:station:USF.COMPS:C13:1,2017-01-01T05:05:00Z,26.0630,-83.0730,1018.34,1111122 
COMPS,ioos:station:USF.COMPS:C13:1,2017-01-01T05:35:00Z,26.0630,-83.0730,1017.9,1111122 
COMPS,ioos:station:USF.COMPS:C13:1,2017-01-01T06:05:00Z,26.0630,-83.0730,1017.51,1111122 
COMPS,ioos:station:USF.COMPS:C13:1,2017-01-01T06:35:00Z,26.0630,-83.0730,1017.54,1111122 
COMPS,ioos:station:USF.COMPS:C13:1,2017-01-01T07:05:00Z,26.0630,-83.0730,1017.52,1111122 
COMPS,ioos:station:USF.COMPS:C13:1,2017-01-01T07:35:00Z,26.0630,-83.0730,1017.23,1111122 
COMPS,ioos:station:USF.COMPS:C13:1,2017-01-01T08:05:00Z,26.0630,-83.0730,1017.04,1111122 
COMPS,ioos:station:USF.COMPS:C13:1,2017-01-01T08:35:00Z,26.0630,-83.0730,1017.25,1111122 
COMPS,ioos:station:USF.COMPS:C13:1,2017-01-01T09:05:00Z,26.0630,-83.0730,1017.02,1111122 
COMPS,ioos:station:USF.COMPS:C13:1,2017-01-01T09:35:00Z,26.0630,-83.0730,1016.98,1111122 
COMPS,ioos:station:USF.COMPS:C13:1,2017-01-01T10:05:00Z,26.0630,-83.0730,1017.02,1111122 
COMPS,ioos:station:USF.COMPS:C13:1,2017-01-01T10:35:00Z,26.0630,-83.0730,1017.03,1111122 
COMPS,ioos:station:USF.COMPS:C13:1,2017-01-01T11:05:00Z,26.0630,-83.0730,1017.07,1111122 
COMPS,ioos:station:USF.COMPS:C13:1,2017-01-01T11:35:00Z,26.0630,-83.0730,1017.26,1111122 
COMPS,ioos:station:USF.COMPS:C13:1,2017-01-01T12:05:00Z,26.0630,-83.0730,1017.55,1111122 
COMPS,ioos:station:USF.COMPS:C13:1,2017-01-01T12:35:00Z,26.0630,-83.0730,1017.89,1111122 
COMPS,ioos:station:USF.COMPS:C13:1,2017-01-01T13:05:00Z,26.0630,-83.0730,1017.84,1111122 
COMPS,ioos:station:USF.COMPS:C13:1,2017-01-01T13:35:00Z,26.0630,-83.0730,1018.03,1111122 
COMPS,ioos:station:USF.COMPS:C13:1,2017-01-01T14:05:00Z,26.0630,-83.0730,1018.42,1111122 
COMPS,ioos:station:USF.COMPS:C13:1,2017-01-01T14:35:00Z,26.0630,-83.0730,1018.68,1111122 
COMPS,ioos:station:USF.COMPS:C13:1,2017-01-01T15:05:00Z,26.0630,-83.0730,1018.97,1111122 
COMPS,ioos:station:USF.COMPS:C13:1,2017-01-01T15:35:00Z,26.0630,-83.0730,1019.03,1111122 
COMPS,ioos:station:USF.COMPS:C13:1,2017-01-01T16:05:00Z,26.0630,-83.0730,1019.15,1111122 
COMPS,ioos:station:USF.COMPS:C13:1,2017-01-01T16:35:00Z,26.0630,-83.0730,1019.21,1111122 
COMPS,ioos:station:USF.COMPS:C13:1,2017-01-01T17:05:00Z,26.0630,-83.0730,1019.06,1111122 
COMPS,ioos:station:USF.COMPS:C13:1,2017-01-01T17:35:00Z,26.0630,-83.0730,1018.47,1111122 
COMPS,ioos:station:USF.COMPS:C13:1,2017-01-01T18:05:00Z,26.0630,-83.0730,1018.05,1111122 
COMPS,ioos:station:USF.COMPS:C13:1,2017-01-01T18:35:00Z,26.0630,-83.0730,1017.55,1111122 
COMPS,ioos:station:USF.COMPS:C13:1,2017-01-01T19:05:00Z,26.0630,-83.0730,1017.47,1111122 
COMPS,ioos:station:USF.COMPS:C13:1,2017-01-01T19:35:00Z,26.0630,-83.0730,1017.35,1111122 
COMPS,ioos:station:USF.COMPS:C13:1,2017-01-01T20:05:00Z,26.0630,-83.0730,1017.45,1111122 
COMPS,ioos:station:USF.COMPS:C13:1,2017-01-01T20:35:00Z,26.0630,-83.0730,1017.4,1111122 
COMPS,ioos:station:USF.COMPS:C13:1,2017-01-01T21:05:00Z,26.0630,-83.0730,1017.14,1111122 
COMPS,ioos:station:USF.COMPS:C13:1,2017-01-01T21:35:00Z,26.0630,-83.0730,1017.23,1111122 
COMPS,ioos:station:USF.COMPS:C13:1,2017-01-01T22:05:00Z,26.0630,-83.0730,1016.97,1111122 
COMPS,ioos:station:USF.COMPS:C13:1,2017-01-01T22:35:00Z,26.0630,-83.0730,1017.28,1111122 
COMPS,ioos:station:USF.COMPS:C13:1,2017-01-01T23:05:00Z,26.0630,-83.0730,1017.51,1111122 
COMPS,ioos:station:USF.COMPS:C13:1,2017-01-01T23:35:00Z,26.0630,-83.0730,1017.65,1111122 
COMPS,ioos:station:USF.COMPS:C13:1,2017-01-02T00:05:00Z,26.0630,-83.0730,1017.85,1111122 
COMPS,ioos:station:USF.COMPS:C13:1,2017-01-02T00:35:00Z,26.0630,-83.0730,1018.0,1111122 
COMPS,ioos:station:USF.COMPS:C13:1,2017-01-02T01:05:00Z,26.0630,-83.0730,1018.31,1111122 
COMPS,ioos:station:USF.COMPS:C13:1,2017-01-02T01:35:00Z,26.0630,-83.0730,1018.49,1111122 
COMPS,ioos:station:USF.COMPS:C13:1,2017-01-02T02:05:00Z,26.0630,-83.0730,1018.59,1111122 
COMPS,ioos:station:USF.COMPS:C13:1,2017-01-02T02:35:00Z,26.0630,-83.0730,1018.75,1111122 
COMPS,ioos:station:USF.COMPS:C13:1,2017-01-02T03:05:00Z,26.0630,-83.0730,1018.81,1111122 
COMPS,ioos:station:USF.COMPS:C13:1,2017-01-02T03:35:00Z,26.0630,-83.0730,1018.78,1111122 
COMPS,ioos:station:USF.COMPS:C13:1,2017-01-02T04:05:00Z,26.0630,-83.0730,1018.96,1111122 
COMPS,ioos:station:USF.COMPS:C13:1,2017-01-02T04:35:00Z,26.0630,-83.0730,1019.11,1111122 
COMPS,ioos:station:USF.COMPS:C13:1,2017-01-02T05:05:00Z,26.0630,-83.0730,1018.95,1111122 
COMPS,ioos:station:USF.COMPS:C13:1,2017-01-02T05:35:00Z,26.0630,-83.0730,1018.76,1111122 
COMPS,ioos:station:USF.COMPS:C13:1,2017-01-02T06:05:00Z,26.0630,-83.0730,1018.6,1111122 
COMPS,ioos:station:USF.COMPS:C13:1,2017-01-02T06:35:00Z,26.0630,-83.0730,1018.66,1111122 
COMPS,ioos:station:USF.COMPS:C13:1,2017-01-02T07:05:00Z,26.0630,-83.0730,1018.67,1111122 
COMPS,ioos:station:USF.COMPS:C13:1,2017-01-02T07:35:00Z,26.0630,-83.0730,1018.48,1111122 
COMPS,ioos:station:USF.COMPS:C13:1,2017-01-02T08:05:00Z,26.0630,-83.0730,1018.4,1111122 
COMPS,ioos:station:USF.COMPS:C13:1,2017-01-02T08:35:00Z,26.0630,-83.0730,1018.44,1111122 
COMPS,ioos:station:USF.COMPS:C13:1,2017-01-02T09:05:00Z,26.0630,-83.0730,1018.28,1111122 
COMPS,ioos:station:USF.COMPS:C13:1,2017-01-02T09:35:00Z,26.0630,-83.0730,1017.89,1111122 
COMPS,ioos:station:USF.COMPS:C13:1,2017-01-02T10:05:00Z,26.0630,-83.0730,1017.88,1111122 
COMPS,ioos:station:USF.COMPS:C13:1,2017-01-02T10:35:00Z,26.0630,-83.0730,1017.89,1111122 
COMPS,ioos:station:USF.COMPS:C13:1,2017-01-02T11:05:00Z,26.0630,-83.0730,1017.89,1111122 
COMPS,ioos:station:USF.COMPS:C13:1,2017-01-02T11:35:00Z,26.0630,-83.0730,1018.16,1111122 
COMPS,ioos:station:USF.COMPS:C13:1,2017-01-02T12:05:00Z,26.0630,-83.0730,1018.44,1111122 
COMPS,ioos:station:USF.COMPS:C13:1,2017-01-02T12:35:00Z,26.0630,-83.0730,1017.89,1111122 
COMPS,ioos:station:USF.COMPS:C13:1,2017-01-02T13:05:00Z,26.0630,-83.0730,1018.35,1111122 
COMPS,ioos:station:USF.COMPS:C13:1,2017-01-02T13:35:00Z,26.0630,-83.0730,1018.63,1111122 
COMPS,ioos:station:USF.COMPS:C13:1,2017-01-02T14:05:00Z,26.0630,-83.0730,1018.91,1111122 
COMPS,ioos:station:USF.COMPS:C13:1,2017-01-02T14:35:00Z,26.0630,-83.0730,1019.32,1111122 
COMPS,ioos:station:USF.COMPS:C13:1,2017-01-02T15:05:00Z,26.0630,-83.0730,1019.33,1111122 
COMPS,ioos:station:USF.COMPS:C13:1,2017-01-02T15:35:00Z,26.0630,-83.0730,1019.43,1111122 
COMPS,ioos:station:USF.COMPS:C13:1,2017-01-02T16:05:00Z,26.0630,-83.0730,1019.67,1111122 
COMPS,ioos:station:USF.COMPS:C13:1,2017-01-02T16:35:00Z,26.0630,-83.0730,1018.8,1111122 
COMPS,ioos:station:USF.COMPS:C13:1,2017-01-02T17:05:00Z,26.0630,-83.0730,1018.69,1111122 
COMPS,ioos:station:USF.COMPS:C13:1,2017-01-02T17:35:00Z,26.0630,-83.0730,1017.9,1111122 
COMPS,ioos:station:USF.COMPS:C13:1,2017-01-02T18:05:00Z,26.0630,-83.0730,1017.46,1111122 
COMPS,ioos:station:USF.COMPS:C13:1,2017-01-02T18:35:00Z,26.0630,-83.0730,1016.82,1111122 
COMPS,ioos:station:USF.COMPS:C13:1,2017-01-02T19:05:00Z,26.0630,-83.0730,1016.17,1111122 
COMPS,ioos:station:USF.COMPS:C13:1,2017-01-02T19:35:00Z,26.0630,-83.0730,1016.06,1111122 
COMPS,ioos:station:USF.COMPS:C13:1,2017-01-02T20:05:00Z,26.0630,-83.0730,1016.05,1111122 
COMPS,ioos:station:USF.COMPS:C13:1,2017-01-02T20:35:00Z,26.0630,-83.0730,1016.03,1111122 
COMPS,ioos:station:USF.COMPS:C13:1,2017-01-02T21:05:00Z,26.0630,-83.0730,1016.07,1111122 
COMPS,ioos:station:USF.COMPS:C13:1,2017-01-02T21:35:00Z,26.0630,-83.0730,1016.14,1111122 
COMPS,ioos:station:USF.COMPS:C13:1,2017-01-02T22:05:00Z,26.0630,-83.0730,1016.42,1111122 
COMPS,ioos:station:USF.COMPS:C13:1,2017-01-02T22:35:00Z,26.0630,-83.0730,1016.37,1111122 
COMPS,ioos:station:USF.COMPS:C13:1,2017-01-02T23:05:00Z,26.0630,-83.0730,1016.04,1111122 
COMPS,ioos:station:USF.COMPS:C13:1,2017-01-02T23:35:00Z,26.0630,-83.0730,1015.89,1111122 
COMPS,ioos:station:USF.COMPS:C13:1,2017-01-03T00:05:00Z,26.0630,-83.0730,1015.94,1111122 
COMPS,ioos:station:USF.COMPS:C13:1,2017-01-03T00:35:00Z,26.0630,-83.0730,1015.92,1111122 
COMPS,ioos:station:USF.COMPS:C13:1,2017-01-03T01:05:00Z,26.0630,-83.0730,1015.7,1111122 
COMPS,ioos:station:USF.COMPS:C13:1,2017-01-03T01:35:00Z,26.0630,-83.0730,1015.73,1111122 
COMPS,ioos:station:USF.COMPS:C13:1,2017-01-03T02:05:00Z,26.0630,-83.0730,1015.98,1111122 
COMPS,ioos:station:USF.COMPS:C13:1,2017-01-03T02:35:00Z,26.0630,-83.0730,1016.39,1111122 
COMPS,ioos:station:USF.COMPS:C13:1,2017-01-03T03:05:00Z,26.0630,-83.0730,1016.75,1111122 
COMPS,ioos:station:USF.COMPS:C13:1,2017-01-03T03:35:00Z,26.0630,-83.0730,1016.57,1111122 
COMPS,ioos:station:USF.COMPS:C13:1,2017-01-03T04:05:00Z,26.0630,-83.0730,1016.57,1111122 
COMPS,ioos:station:USF.COMPS:C13:1,2017-01-03T04:35:00Z,26.0630,-83.0730,1016.4,1111122 
COMPS,ioos:station:USF.COMPS:C13:1,2017-01-03T05:05:00Z,26.0630,-83.0730,1016.11,1111122 
COMPS,ioos:station:USF.COMPS:C13:1,2017-01-03T05:35:00Z,26.0630,-83.0730,1016.02,1111122 
COMPS,ioos:station:USF.COMPS:C13:1,2017-01-03T06:05:00Z,26.0630,-83.0730,1015.7,1111122 
COMPS,ioos:station:USF.COMPS:C13:1,2017-01-03T06:35:00Z,26.0630,-83.0730,1015.37,1111122 
COMPS,ioos:station:USF.COMPS:C13:1,2017-01-03T07:05:00Z,26.0630,-83.0730,1014.85,1111122 
COMPS,ioos:station:USF.COMPS:C13:1,2017-01-03T07:35:00Z,26.0630,-83.0730,1014.43,1111122 
COMPS,ioos:station:USF.COMPS:C13:1,2017-01-03T08:05:00Z,26.0630,-83.0730,1014.23,1111122 
COMPS,ioos:station:USF.COMPS:C13:1,2017-01-03T08:35:00Z,26.0630,-83.0730,1014.63,1111122 
COMPS,ioos:station:USF.COMPS:C13:1,2017-01-03T09:05:00Z,26.0630,-83.0730,1014.46,1111122 
COMPS,ioos:station:USF.COMPS:C13:1,2017-01-03T09:35:00Z,26.0630,-83.0730,1014.32,1111122 
COMPS,ioos:station:USF.COMPS:C13:1,2017-01-03T10:05:00Z,26.0630,-83.0730,1014.33,1111122 
COMPS,ioos:station:USF.COMPS:C13:1,2017-01-03T10:35:00Z,26.0630,-83.0730,1014.31,1111122 
COMPS,ioos:station:USF.COMPS:C13:1,2017-01-03T11:05:00Z,26.0630,-83.0730,1014.41,1111122 
COMPS,ioos:station:USF.COMPS:C13:1,2017-01-03T11:35:00Z,26.0630,-83.0730,1014.87,1111122 
COMPS,ioos:station:USF.COMPS:C13:1,2017-01-03T12:05:00Z,26.0630,-83.0730,1015.14,1111122 
COMPS,ioos:station:USF.COMPS:C13:1,2017-01-03T12:35:00Z,26.0630,-83.0730,1015.18,1111122 
COMPS,ioos:station:USF.COMPS:C13:1,2017-01-03T13:05:00Z,26.0630,-83.0730,1015.57,1111122 
COMPS,ioos:station:USF.COMPS:C13:1,2017-01-03T13:35:00Z,26.0630,-83.0730,1015.72,1111122 
COMPS,ioos:station:USF.COMPS:C13:1,2017-01-03T14:05:00Z,26.0630,-83.0730,1015.62,1111122 
COMPS,ioos:station:USF.COMPS:C13:1,2017-01-03T14:35:00Z,26.0630,-83.0730,1015.47,1111122 
COMPS,ioos:station:USF.COMPS:C13:1,2017-01-03T15:05:00Z,26.0630,-83.0730,1015.57,1111122 
COMPS,ioos:station:USF.COMPS:C13:1,2017-01-03T15:35:00Z,26.0630,-83.0730,1015.75,1111122 
COMPS,ioos:station:USF.COMPS:C13:1,2017-01-03T17:05:00Z,26.0630,-83.0730,1014.78,1111122 
COMPS,ioos:station:USF.COMPS:C13:1,2017-01-03T17:35:00Z,26.0630,-83.0730,1014.12,1111122 
COMPS,ioos:station:USF.COMPS:C13:1,2017-01-03T18:05:00Z,26.0630,-83.0730,1013.72,1111122 
COMPS,ioos:station:USF.COMPS:C13:1,2017-01-03T18:35:00Z,26.0630,-83.0730,1013.38,1111122 
COMPS,ioos:station:USF.COMPS:C13:1,2017-01-03T19:05:00Z,26.0630,-83.0730,1012.96,1111122 
COMPS,ioos:station:USF.COMPS:C13:1,2017-01-03T19:35:00Z,26.0630,-83.0730,1012.87,1111122 
COMPS,ioos:station:USF.COMPS:C13:1,2017-01-03T20:05:00Z,26.0630,-83.0730,1012.62,1111122 
COMPS,ioos:station:USF.COMPS:C13:1,2017-01-03T20:35:00Z,26.0630,-83.0730,1012.65,1111122 
COMPS,ioos:station:USF.COMPS:C13:1,2017-01-03T21:05:00Z,26.0630,-83.0730,1012.61,1111122 
COMPS,ioos:station:USF.COMPS:C13:1,2017-01-03T21:35:00Z,26.0630,-83.0730,1012.73,1111122 
COMPS,ioos:station:USF.COMPS:C13:1,2017-01-03T22:05:00Z,26.0630,-83.0730,1012.97,1111122 
COMPS,ioos:station:USF.COMPS:C13:1,2017-01-03T22:35:00Z,26.0630,-83.0730,1012.84,1111122 
COMPS,ioos:station:USF.COMPS:C13:1,2017-01-03T23:05:00Z,26.0630,-83.0730,1012.63,1111122 
COMPS,ioos:station:USF.COMPS:C13:1,2017-01-03T23:35:00Z,26.0630,-83.0730,1012.89,1111122 
COMPS,ioos:station:USF.COMPS:C13:1,2017-01-04T00:05:00Z,26.0630,-83.0730,1013.0,1111122 
COMPS,ioos:station:USF.COMPS:C13:1,2017-01-04T00:35:00Z,26.0630,-83.0730,1012.71,1111122 
COMPS,ioos:station:USF.COMPS:C13:1,2017-01-04T01:05:00Z,26.0630,-83.0730,1012.86,1111122 
COMPS,ioos:station:USF.COMPS:C13:1,2017-01-04T01:35:00Z,26.0630,-83.0730,1012.94,1111122 
COMPS,ioos:station:USF.COMPS:C13:1,2017-01-04T02:05:00Z,26.0630,-83.0730,1012.77,1111122 
COMPS,ioos:station:USF.COMPS:C13:1,2017-01-04T02:35:00Z,26.0630,-83.0730,1012.75,1111122 
COMPS,ioos:station:USF.COMPS:C13:1,2017-01-04T03:05:00Z,26.0630,-83.0730,1012.62,1111122 
COMPS,ioos:station:USF.COMPS:C13:1,2017-01-04T03:35:00Z,26.0630,-83.0730,1012.45,1111122 
COMPS,ioos:station:USF.COMPS:C13:1,2017-01-04T04:05:00Z,26.0630,-83.0730,1012.43,1111122 
COMPS,ioos:station:USF.COMPS:C13:1,2017-01-04T04:35:00Z,26.0630,-83.0730,1012.28,1111122 
COMPS,ioos:station:USF.COMPS:C13:1,2017-01-04T06:05:00Z,26.0630,-83.0730,1011.41,1111122 
COMPS,ioos:station:USF.COMPS:C13:1,2017-01-04T06:35:00Z,26.0630,-83.0730,1011.18,1111122 
COMPS,ioos:station:USF.COMPS:C13:1,2017-01-04T07:05:00Z,26.0630,-83.0730,1011.09,1111122 
COMPS,ioos:station:USF.COMPS:C13:1,2017-01-04T07:35:00Z,26.0630,-83.0730,1010.97,1111122 
COMPS,ioos:station:USF.COMPS:C13:1,2017-01-04T08:05:00Z,26.0630,-83.0730,1010.77,1111122 
COMPS,ioos:station:USF.COMPS:C13:1,2017-01-04T08:35:00Z,26.0630,-83.0730,1010.71,1111122 
COMPS,ioos:station:USF.COMPS:C13:1,2017-01-04T09:05:00Z,26.0630,-83.0730,1010.88,1111122 
COMPS,ioos:station:USF.COMPS:C13:1,2017-01-04T09:35:00Z,26.0630,-83.0730,1010.91,1111122 
COMPS,ioos:station:USF.COMPS:C13:1,2017-01-04T10:05:00Z,26.0630,-83.0730,1010.8,1111122 
COMPS,ioos:station:USF.COMPS:C13:1,2017-01-04T10:35:00Z,26.0630,-83.0730,1010.85,1111122 
COMPS,ioos:station:USF.COMPS:C13:1,2017-01-04T11:05:00Z,26.0630,-83.0730,1011.02,1111122 
COMPS,ioos:station:USF.COMPS:C13:1,2017-01-04T11:35:00Z,26.0630,-83.0730,1011.16,1111122 
COMPS,ioos:station:USF.COMPS:C13:1,2017-01-04T12:05:00Z,26.0630,-83.0730,1011.22,1111122 
COMPS,ioos:station:USF.COMPS:C13:1,2017-01-04T12:35:00Z,26.0630,-83.0730,1011.25,1111122 
COMPS,ioos:station:USF.COMPS:C13:1,2017-01-04T13:05:00Z,26.0630,-83.0730,1011.39,1111122 
COMPS,ioos:station:USF.COMPS:C13:1,2017-01-04T13:35:00Z,26.0630,-83.0730,1011.53,1111122 
COMPS,ioos:station:USF.COMPS:C13:1,2017-01-04T14:05:00Z,26.0630,-83.0730,1011.52,1111122 
COMPS,ioos:station:USF.COMPS:C13:1,2017-01-04T14:35:00Z,26.0630,-83.0730,1011.67,1111122 
COMPS,ioos:station:USF.COMPS:C13:1,2017-01-04T15:05:00Z,26.0630,-83.0730,1011.92,1111122 
COMPS,ioos:station:USF.COMPS:C13:1,2017-01-04T15:35:00Z,26.0630,-83.0730,1012.11,1111122 
COMPS,ioos:station:USF.COMPS:C13:1,2017-01-04T16:05:00Z,26.0630,-83.0730,1011.86,1111122 
COMPS,ioos:station:USF.COMPS:C13:1,2017-01-04T16:35:00Z,26.0630,-83.0730,1011.44,1111122 
COMPS,ioos:station:USF.COMPS:C13:1,2017-01-04T17:05:00Z,26.0630,-83.0730,1011.06,1111122 
COMPS,ioos:station:USF.COMPS:C13:1,2017-01-04T17:35:00Z,26.0630,-83.0730,1010.94,1111122 
COMPS,ioos:station:USF.COMPS:C13:1,2017-01-04T18:05:00Z,26.0630,-83.0730,1010.4,1111122 
COMPS,ioos:station:USF.COMPS:C13:1,2017-01-04T18:35:00Z,26.0630,-83.0730,1010.0,1111122 
COMPS,ioos:station:USF.COMPS:C13:1,2017-01-04T19:05:00Z,26.0630,-83.0730,1009.54,1111122 
COMPS,ioos:station:USF.COMPS:C13:1,2017-01-04T19:35:00Z,26.0630,-83.0730,1009.37,1111122 
COMPS,ioos:station:USF.COMPS:C13:1,2017-01-04T20:05:00Z,26.0630,-83.0730,1009.46,1111122 
COMPS,ioos:station:USF.COMPS:C13:1,2017-01-04T20:35:00Z,26.0630,-83.0730,1009.44,1111122 
COMPS,ioos:station:USF.COMPS:C13:1,2017-01-04T21:05:00Z,26.0630,-83.0730,1009.41,1111122 
COMPS,ioos:station:USF.COMPS:C13:1,2017-01-04T21:35:00Z,26.0630,-83.0730,1009.72,1111122 
COMPS,ioos:station:USF.COMPS:C13:1,2017-01-04T22:05:00Z,26.0630,-83.0730,1009.57,1111122 
COMPS,ioos:station:USF.COMPS:C13:1,2017-01-04T22:35:00Z,26.0630,-83.0730,1009.87,1111122 
COMPS,ioos:station:USF.COMPS:C13:1,2017-01-04T23:05:00Z,26.0630,-83.0730,1009.93,1111122 
COMPS,ioos:station:USF.COMPS:C13:1,2017-01-04T23:35:00Z,26.0630,-83.0730,1010.16,1111122 
COMPS,ioos:station:USF.COMPS:C13:1,2017-01-05T00:05:00Z,26.0630,-83.0730,1010.55,1111122 
COMPS,ioos:station:USF.COMPS:C13:1,2017-01-05T00:35:00Z,26.0630,-83.0730,1010.84,1111122 
COMPS,ioos:station:USF.COMPS:C13:1,2017-01-05T01:05:00Z,26.0630,-83.0730,1010.77,1111122 
COMPS,ioos:station:USF.COMPS:C13:1,2017-01-05T01:35:00Z,26.0630,-83.0730,1010.8,1111122 
COMPS,ioos:station:USF.COMPS:C13:1,2017-01-05T02:05:00Z,26.0630,-83.0730,1010.95,1111122 
COMPS,ioos:station:USF.COMPS:C13:1,2017-01-05T02:35:00Z,26.0630,-83.0730,1011.21,1111122 
COMPS,ioos:station:USF.COMPS:C13:1,2017-01-05T03:05:00Z,26.0630,-83.0730,1011.27,1111122 
COMPS,ioos:station:USF.COMPS:C13:1,2017-01-05T03:35:00Z,26.0630,-83.0730,1011.64,1111122 
COMPS,ioos:station:USF.COMPS:C13:1,2017-01-05T04:05:00Z,26.0630,-83.0730,1011.61,1111122 
COMPS,ioos:station:USF.COMPS:C13:1,2017-01-05T04:35:00Z,26.0630,-83.0730,1011.4,1111122 
COMPS,ioos:station:USF.COMPS:C13:1,2017-01-05T05:05:00Z,26.0630,-83.0730,1011.04,1111122 
COMPS,ioos:station:USF.COMPS:C13:1,2017-01-05T05:35:00Z,26.0630,-83.0730,1010.78,1111122 
COMPS,ioos:station:USF.COMPS:C13:1,2017-01-05T08:05:00Z,26.0630,-83.0730,1010.82,1111122 
COMPS,ioos:station:USF.COMPS:C13:1,2017-01-05T08:35:00Z,26.0630,-83.0730,1010.56,1111122 
COMPS,ioos:station:USF.COMPS:C13:1,2017-01-05T09:05:00Z,26.0630,-83.0730,1010.64,1111122 
COMPS,ioos:station:USF.COMPS:C13:1,2017-01-05T09:35:00Z,26.0630,-83.0730,1010.52,1111122 
COMPS,ioos:station:USF.COMPS:C13:1,2017-01-05T10:05:00Z,26.0630,-83.0730,1010.52,1111122 
COMPS,ioos:station:USF.COMPS:C13:1,2017-01-05T10:35:00Z,26.0630,-83.0730,1010.51,1111122 
COMPS,ioos:station:USF.COMPS:C13:1,2017-01-05T11:05:00Z,26.0630,-83.0730,1010.68,1111122 
COMPS,ioos:station:USF.COMPS:C13:1,2017-01-05T11:35:00Z,26.0630,-83.0730,1010.86,1111122 
COMPS,ioos:station:USF.COMPS:C13:1,2017-01-05T13:05:00Z,26.0630,-83.0730,1011.7,1111122 
COMPS,ioos:station:USF.COMPS:C13:1,2017-01-05T13:35:00Z,26.0630,-83.0730,1011.77,1111122 
COMPS,ioos:station:USF.COMPS:C13:1,2017-01-05T14:05:00Z,26.0630,-83.0730,1012.15,1111122 
COMPS,ioos:station:USF.COMPS:C13:1,2017-01-05T14:35:00Z,26.0630,-83.0730,1012.17,1111122 
COMPS,ioos:station:USF.COMPS:C13:1,2017-01-05T15:05:00Z,26.0630,-83.0730,1012.45,1111122 
COMPS,ioos:station:USF.COMPS:C13:1,2017-01-05T15:35:00Z,26.0630,-83.0730,1012.5,1111122 
COMPS,ioos:station:USF.COMPS:C13:1,2017-01-05T16:05:00Z,26.0630,-83.0730,1012.43,1111122 
COMPS,ioos:station:USF.COMPS:C13:1,2017-01-05T16:35:00Z,26.0630,-83.0730,1012.36,1111122 
COMPS,ioos:station:USF.COMPS:C13:1,2017-01-05T17:05:00Z,26.0630,-83.0730,1012.14,1111122 
COMPS,ioos:station:USF.COMPS:C13:1,2017-01-05T17:35:00Z,26.0630,-83.0730,1011.7,1111122 
COMPS,ioos:station:USF.COMPS:C13:1,2017-01-05T18:05:00Z,26.0630,-83.0730,1011.12,1111122 
COMPS,ioos:station:USF.COMPS:C13:1,2017-01-05T18:35:00Z,26.0630,-83.0730,1010.67,1111122 
COMPS,ioos:station:USF.COMPS:C13:1,2017-01-05T19:05:00Z,26.0630,-83.0730,1010.26,1111122 
COMPS,ioos:station:USF.COMPS:C13:1,2017-01-05T19:35:00Z,26.0630,-83.0730,1010.13,1111122 
COMPS,ioos:station:USF.COMPS:C13:1,2017-01-05T20:05:00Z,26.0630,-83.0730,1010.01,1111122 
COMPS,ioos:station:USF.COMPS:C13:1,2017-01-05T20:35:00Z,26.0630,-83.0730,1010.06,1111122 
COMPS,ioos:station:USF.COMPS:C13:1,2017-01-05T21:05:00Z,26.0630,-83.0730,1010.26,1111122 
COMPS,ioos:station:USF.COMPS:C13:1,2017-01-05T21:35:00Z,26.0630,-83.0730,1010.4,1111122 
COMPS,ioos:station:USF.COMPS:C13:1,2017-01-05T22:05:00Z,26.0630,-83.0730,1010.41,1111122 
COMPS,ioos:station:USF.COMPS:C13:1,2017-01-05T22:35:00Z,26.0630,-83.0730,1010.43,1111122 
COMPS,ioos:station:USF.COMPS:C13:1,2017-01-05T23:05:00Z,26.0630,-83.0730,1010.82,1111122 
COMPS,ioos:station:USF.COMPS:C13:1,2017-01-05T23:35:00Z,26.0630,-83.0730,1011.02,1111122 
COMPS,ioos:station:USF.COMPS:C13:1,2017-01-06T00:05:00Z,26.0630,-83.0730,1011.22,1111122 
COMPS,ioos:station:USF.COMPS:C13:1,2017-01-06T00:35:00Z,26.0630,-83.0730,1011.61,1111122 
COMPS,ioos:station:USF.COMPS:C13:1,2017-01-06T01:05:00Z,26.0630,-83.0730,1011.74,1111122 
COMPS,ioos:station:USF.COMPS:C13:1,2017-01-06T01:35:00Z,26.0630,-83.0730,1012.06,1111122 
COMPS,ioos:station:USF.COMPS:C13:1,2017-01-06T02:05:00Z,26.0630,-83.0730,1012.59,1111122 
COMPS,ioos:station:USF.COMPS:C13:1,2017-01-06T02:35:00Z,26.0630,-83.0730,1012.72,1111122 
COMPS,ioos:station:USF.COMPS:C13:1,2017-01-06T03:05:00Z,26.0630,-83.0730,1012.74,1111122 
COMPS,ioos:station:USF.COMPS:C13:1,2017-01-06T03:35:00Z,26.0630,-83.0730,1012.76,1111122 
COMPS,ioos:station:USF.COMPS:C13:1,2017-01-06T04:05:00Z,26.0630,-83.0730,1012.75,1111122 
COMPS,ioos:station:USF.COMPS:C13:1,2017-01-06T04:35:00Z,26.0630,-83.0730,1012.76,1111122 
COMPS,ioos:station:USF.COMPS:C13:1,2017-01-06T05:05:00Z,26.0630,-83.0730,1012.75,1111122 
COMPS,ioos:station:USF.COMPS:C13:1,2017-01-06T05:35:00Z,26.0630,-83.0730,1012.55,1111122 
COMPS,ioos:station:USF.COMPS:C13:1,2017-01-06T06:05:00Z,26.0630,-83.0730,1012.34,1111122 
COMPS,ioos:station:USF.COMPS:C13:1,2017-01-06T06:35:00Z,26.0630,-83.0730,1012.07,1111122 
COMPS,ioos:station:USF.COMPS:C13:1,2017-01-06T07:05:00Z,26.0630,-83.0730,1012.03,1111122 
COMPS,ioos:station:USF.COMPS:C13:1,2017-01-06T07:35:00Z,26.0630,-83.0730,1011.76,1111122 
COMPS,ioos:station:USF.COMPS:C13:1,2017-01-06T10:05:00Z,26.0630,-83.0730,1011.73,1111122 
COMPS,ioos:station:USF.COMPS:C13:1,2017-01-06T10:35:00Z,26.0630,-83.0730,1012.03,1111122 
COMPS,ioos:station:USF.COMPS:C13:1,2017-01-06T11:05:00Z,26.0630,-83.0730,1012.25,1111122 
COMPS,ioos:station:USF.COMPS:C13:1,2017-01-06T11:35:00Z,26.0630,-83.0730,1012.59,1111122 
COMPS,ioos:station:USF.COMPS:C13:1,2017-01-06T12:05:00Z,26.0630,-83.0730,1013.14,1111122 
COMPS,ioos:station:USF.COMPS:C13:1,2017-01-06T12:35:00Z,26.0630,-83.0730,1013.54,1111122 
COMPS,ioos:station:USF.COMPS:C13:1,2017-01-06T13:05:00Z,26.0630,-83.0730,1013.71,1111122 
COMPS,ioos:station:USF.COMPS:C13:1,2017-01-06T13:35:00Z,26.0630,-83.0730,1013.88,1111122 
COMPS,ioos:station:USF.COMPS:C13:1,2017-01-06T14:05:00Z,26.0630,-83.0730,1014.27,1111122 
COMPS,ioos:station:USF.COMPS:C13:1,2017-01-06T14:35:00Z,26.0630,-83.0730,1014.26,1111122 
COMPS,ioos:station:USF.COMPS:C13:1,2017-01-06T15:05:00Z,26.0630,-83.0730,1014.4,1111122 
COMPS,ioos:station:USF.COMPS:C13:1,2017-01-06T15:35:00Z,26.0630,-83.0730,1014.51,1111122 
COMPS,ioos:station:USF.COMPS:C13:1,2017-01-06T16:05:00Z,26.0630,-83.0730,1014.4,1111122 
COMPS,ioos:station:USF.COMPS:C13:1,2017-01-06T16:35:00Z,26.0630,-83.0730,1014.29,1111122 
COMPS,ioos:station:USF.COMPS:C13:1,2017-01-06T17:05:00Z,26.0630,-83.0730,1013.92,1111122 
COMPS,ioos:station:USF.COMPS:C13:1,2017-01-06T17:35:00Z,26.0630,-83.0730,1013.3,1111122 
COMPS,ioos:station:USF.COMPS:C13:1,2017-01-06T18:05:00Z,26.0630,-83.0730,1012.81,1111122 
COMPS,ioos:station:USF.COMPS:C13:1,2017-01-06T18:35:00Z,26.0630,-83.0730,1012.15,1111122 
COMPS,ioos:station:USF.COMPS:C13:1,2017-01-06T19:05:00Z,26.0630,-83.0730,1011.95,1111122 
COMPS,ioos:station:USF.COMPS:C13:1,2017-01-06T19:35:00Z,26.0630,-83.0730,1011.63,1111122 